,

(GMT )
Munich

Weather History for EDDM - March, 2017

Change the Weather History Date:

Monday, March 20, 2017

  Actual Average Record
Temperature  
Mean Temperature 50 °F -  
Max Temperature 57 °F 47 °F 66 °F (2014)
Min Temperature 44 °F 32 °F 23 °F (2006)
Degree Days  
Heating Degree Days 14    
Moisture  
Dew Point 44 °F    
Average Humidity 78    
Maximum Humidity 93    
Minimum Humidity 63    
Precipitation  
Precipitation 0.00 in - - ()
Sea Level Pressure  
Sea Level Pressure 29.89 in    
Wind  
Wind Speed 7 mph ()    
Max Wind Speed 13 mph    
Max Gust Speed -    
Visibility 6.1 miles    
Events      
Averages and records for this station are not official NWS values.
T = Trace of Precipitation, MM = Missing Value Source: Averaged Metar Reports

Daily Weather History Graph

Daily Weather History Graph

Search for Another Location

Airport or City:

Trip Planner

Search our weather history database for the weather conditions in past years. The results will help you decide how hot, cold, wet, or windy it might be!

Date:

Astronomy

Mar. 20, 2017 Rise Set
Actual Time 6:16 AM CET 6:26 PM CET
Civil Twilight 5:45 AM CET 6:57 PM CET
Nautical Twilight 5:08 AM CET 7:33 PM CET
Astronomical Twilight 4:30 AM CET 8:11 PM CET
Moon 1:17 AM CET (3/20) 10:39 AM CET (3/20)
Length of Visible Light 13h 12m
Length of Day
12h 09m
Waning Gibbous, 52% of the Moon is Illuminated
Mar 20
Waning Gibbous
Mar 20
Last Quarter
Mar 28
New
Apr 3
First Quarter
Apr 11
Full

Hourly Weather History & Observations

Time (CET) Temp. Windchill Dew Point Humidity Pressure Visibility Wind Dir Wind Speed Gust Speed Precip Events Conditions
12:20 AM 48.2 °F - 44.6 °F 87% 29.89 in 6.2 mi WSW 9.2 mph - N/A   Scattered Clouds
12:50 AM 48.2 °F - 42.8 °F 82% 29.89 in 6.2 mi WSW 8.1 mph - N/A   Scattered Clouds
1:20 AM 48.2 °F - 42.8 °F 82% 29.89 in 6.2 mi WSW 9.2 mph - N/A   Partly Cloudy
1:50 AM 46.4 °F 42.9 °F 42.8 °F 87% 29.92 in 6.2 mi West 6.9 mph - N/A   Mostly Cloudy
2:20 AM 48.2 °F - 44.6 °F 87% 29.92 in 6.2 mi WSW 10.4 mph - N/A   Mostly Cloudy
2:50 AM 50.0 °F - 44.6 °F 82% 29.92 in 6.2 mi West 5.8 mph - N/A   Mostly Cloudy
3:20 AM 50.0 °F - 42.8 °F 76% 29.92 in 6.2 mi West 4.6 mph - N/A   Mostly Cloudy
3:50 AM 48.2 °F - 42.8 °F 82% 29.92 in 6.2 mi West 4.6 mph - N/A   Mostly Cloudy
4:20 AM 48.2 °F - 44.6 °F 87% 29.92 in 6.2 mi WNW 4.6 mph - N/A   Mostly Cloudy
4:50 AM 48.2 °F - 44.6 °F 87% 29.92 in 6.2 mi WNW 5.8 mph - N/A   Mostly Cloudy
5:20 AM 48.2 °F - 42.8 °F 82% 29.92 in 6.2 mi WNW 9.2 mph - N/A   Mostly Cloudy
5:50 AM 48.2 °F - 42.8 °F 82% 29.92 in 6.2 mi West 6.9 mph - N/A   Light Drizzle
6:20 AM 48.2 °F - 42.8 °F 82% 29.92 in 6.2 mi WNW 8.1 mph - N/A   Light Drizzle
6:50 AM 48.2 °F - 42.8 °F 82% 29.95 in 5.6 mi WNW 10.4 mph - N/A   Light Drizzle
7:20 AM 46.4 °F 43.5 °F 42.8 °F 87% 29.95 in 5.0 mi West 5.8 mph - N/A   Light Drizzle
7:50 AM 46.4 °F 45.2 °F 44.6 °F 93% 29.95 in 3.7 mi West 3.5 mph - N/A   Light Drizzle
8:20 AM 48.2 °F - 44.6 °F 87% 29.95 in 6.2 mi WSW 4.6 mph - N/A   Mostly Cloudy
8:50 AM 48.2 °F - 44.6 °F 87% 29.95 in 6.2 mi West 10.4 mph - N/A   Mostly Cloudy
9:20 AM 48.2 °F - 42.8 °F 82% 29.95 in 6.2 mi West 9.2 mph - N/A   Mostly Cloudy
9:50 AM 48.2 °F - 44.6 °F 87% 29.95 in 6.2 mi West 9.2 mph - N/A   Mostly Cloudy
10:20 AM 48.2 °F - 42.8 °F 82% 29.95 in 6.2 mi West 9.2 mph - N/A   Mostly Cloudy
10:50 AM 48.2 °F - 44.6 °F 87% 29.95 in 6.2 mi West 9.2 mph - N/A   Mostly Cloudy
11:20 AM 50.0 °F - 44.6 °F 82% 29.95 in 6.2 mi WSW 9.2 mph - N/A   Mostly Cloudy
11:50 AM 51.8 °F - 46.4 °F 82% 29.92 in 6.2 mi West 6.9 mph - N/A   Mostly Cloudy
12:20 PM 53.6 °F - 44.6 °F 72% 29.92 in 6.2 mi WNW 6.9 mph - N/A   Mostly Cloudy
12:50 PM 53.6 °F - 44.6 °F 72% 29.92 in 6.2 mi NW 5.8 mph - N/A   Mostly Cloudy
1:20 PM 55.4 °F - 44.6 °F 67% 29.89 in 6.2 mi WNW 8.1 mph - N/A   Mostly Cloudy
1:50 PM 55.4 °F - 44.6 °F 67% 29.89 in 6.2 mi WNW 8.1 mph - N/A   Mostly Cloudy
2:20 PM 55.4 °F - 46.4 °F 72% 29.89 in 6.2 mi West 6.9 mph - N/A   Mostly Cloudy
2:50 PM 57.2 °F - 44.6 °F 63% 29.86 in 6.2 mi West 6.9 mph - N/A   Scattered Clouds
3:20 PM 57.2 °F - 44.6 °F 63% 29.86 in 6.2 mi West 10.4 mph - N/A   Scattered Clouds
3:50 PM 57.2 °F - 44.6 °F 63% 29.86 in 6.2 mi West 12.7 mph - N/A   Scattered Clouds
4:20 PM 57.2 °F - 44.6 °F 63% 29.83 in 6.2 mi West 9.2 mph - N/A   Scattered Clouds
4:50 PM 57.2 °F - 44.6 °F 63% 29.83 in 6.2 mi West 5.8 mph - N/A   Scattered Clouds
5:20 PM 57.2 °F - 44.6 °F 63% 29.83 in 6.2 mi West 3.5 mph - N/A   Scattered Clouds
5:50 PM 55.4 °F - 44.6 °F 67% 29.83 in 6.2 mi Variable 2.3 mph - N/A   Scattered Clouds
6:20 PM 55.4 °F - 44.6 °F 67% 29.83 in 6.2 mi West 3.5 mph - N/A   Scattered Clouds
6:50 PM 53.6 °F - 42.8 °F 67% 29.83 in - WSW 5.8 mph - N/A   Clear
7:20 PM 50.0 °F - 42.8 °F 76% 29.83 in - West 4.6 mph - N/A   Clear
7:50 PM 53.6 °F - 44.6 °F 72% 29.83 in - SW 5.8 mph - N/A   Clear
8:20 PM 44.6 °F 40.7 °F 39.2 °F 81% 29.83 in - SSW 6.9 mph - N/A   Clear
9:20 PM 51.8 °F - 42.8 °F 71% 29.83 in - WSW 10.4 mph - N/A   Clear
9:50 PM 50.0 °F - 42.8 °F 76% 29.83 in - WSW 10.4 mph - N/A   Clear
10:20 PM 50.0 °F - 44.6 °F 82% 29.86 in - WSW 9.2 mph - N/A   Clear
10:50 PM 48.2 °F - 42.8 °F 82% 29.83 in - WSW 8.1 mph - N/A   Clear
11:20 PM 46.4 °F 43.5 °F 42.8 °F 87% 29.86 in 6.2 mi SW 5.8 mph - N/A   Mostly Cloudy
11:50 PM 48.2 °F - 44.6 °F 87% 29.86 in 6.2 mi WSW 6.9 mph - N/A   Mostly Cloudy